Weather History for Pittsfield, IL

Change the Weather History Date:

Friday, October 25, 2013

  Actual Average (KUIN) Record (KUIN)
Temperature  
Mean Temperature 41 °F 52 °F  
Max Temperature 54 °F 62 °F 85 °F (1939)
Min Temperature 28 °F 42 °F 23 °F (2013)
Degree Days  
Heating Degree Days 24 13  
Month to date heating degree days 248  
Since 1 July heating degree days 335  
Cooling Degree Days 0 0  
Month to date cooling degree days 14  
Year to date cooling degree days 1090  
Moisture  
Dew Point 27 °F    
Average Humidity 61    
Maximum Humidity 87    
Minimum Humidity 32    
Precipitation  
Precipitation 0.00 in 0.09 in 1.91 in (1986)
Month to date precipitation 2.43  
Year to date precipitation 31.48  
Sea Level Pressure  
Sea Level Pressure 30.37 in    
Wind  
Wind Speed 5 mph (SW)    
Max Wind Speed 15 mph    
Max Gust Speed 18 mph    
Visibility 10 miles    
Events      
T = Trace of Precipitation, MM = Missing Value Source: NWS Daily Summary

Daily Weather History Graph

Daily Weather History Graph

Search for Another Location

Airport:

Trip Planner

Search our weather history database for the weather conditions in past years. The results will help you decide how hot, cold, wet, or windy it might be!

Date:

Astronomy

Oct. 25, 2013 Rise Set
Actual Time 7:24 AM CDT 6:09 PM CDT
Civil Twilight 6:56 AM CDT 6:37 PM CDT
Nautical Twilight 6:24 AM CDT 7:08 PM CDT
Astronomical Twilight 5:53 AM CDT 7:39 PM CDT
Moon 11:29 PM CDT (10/25) 1:04 PM CDT (10/25)
Length of Visible Light 11h 40m
Length of Day
10h 45m
Waning Gibbous, 62% of the Moon is Illuminated
Oct 25
Waning Gibbous
Oct 26
Last Quarter
Nov 3
New
Nov 9
First Quarter
Nov 17
Full

Hourly Weather History & Observations

Time (CDT) Temp. Windchill Dew Point Humidity Pressure Visibility Wind Dir Wind Speed Gust Speed Precip Events Conditions
12:15 AM 28.9 °F 23.9 °F 25.5 °F 87% 30.41 in 10.0 mi WSW 4.6 mph - N/A   Clear
12:35 AM 30.6 °F 27.1 °F 25.5 °F 82% 30.41 in 10.0 mi West 3.5 mph - N/A   Clear
12:55 AM 31.3 °F 26.6 °F 25.7 °F 80% 30.41 in 10.0 mi West 4.6 mph - N/A   Clear
1:15 AM 31.5 °F 26.8 °F 25.7 °F 79% 30.41 in 10.0 mi West 4.6 mph - N/A   Clear
1:35 AM 32.0 °F 28.7 °F 26.1 °F 79% 30.42 in 10.0 mi West 3.5 mph - N/A   Clear
1:55 AM 30.4 °F 26.9 °F 25.7 °F 83% 30.43 in 10.0 mi West 3.5 mph - N/A   Clear
2:15 AM 30.4 °F 26.9 °F 25.5 °F 82% 30.43 in 10.0 mi West 3.5 mph - N/A   Clear
2:35 AM 29.8 °F 26.3 °F 25.3 °F 83% 30.43 in 10.0 mi West 3.5 mph - N/A   Clear
2:55 AM 30.2 °F 25.4 °F 25.7 °F 83% 30.43 in 10.0 mi West 4.6 mph - N/A   Clear
3:15 AM 30.0 °F 26.5 °F 25.7 °F 84% 30.44 in 10.0 mi West 3.5 mph - N/A   Clear
3:35 AM 29.7 °F 24.7 °F 25.5 °F 85% 30.44 in 10.0 mi West 4.6 mph - N/A   Clear
3:55 AM 30.9 °F 26.2 °F 26.2 °F 83% 30.44 in 10.0 mi West 4.6 mph - N/A   Clear
4:15 AM 31.5 °F 26.8 °F 26.4 °F 82% 30.44 in 10.0 mi West 4.6 mph - N/A   Clear
4:35 AM 31.6 °F 28.3 °F 26.6 °F 82% 30.44 in 10.0 mi West 3.5 mph - N/A   Clear
4:55 AM 30.0 °F 25.2 °F 25.7 °F 84% 30.45 in 10.0 mi West 4.6 mph - N/A   Clear
5:15 AM 29.8 °F 26.3 °F 26.1 °F 86% 30.46 in 10.0 mi West 3.5 mph - N/A   Clear
5:35 AM 30.4 °F 23.6 °F 26.1 °F 84% 30.46 in 10.0 mi West 6.9 mph - N/A   Clear
5:55 AM 31.6 °F 27.0 °F 26.6 °F 82% 30.46 in 10.0 mi West 4.6 mph - N/A   Clear
6:15 AM 31.6 °F 27.0 °F 26.6 °F 82% 30.46 in 10.0 mi West 4.6 mph - N/A   Clear
6:35 AM 30.0 °F - 26.4 °F 86% 30.47 in 10.0 mi Calm Calm - N/A   Clear
6:55 AM 30.6 °F 27.1 °F 26.4 °F 85% 30.47 in 10.0 mi WSW 3.5 mph - N/A   Clear
7:15 AM 30.7 °F - 26.6 °F 85% 30.47 in 10.0 mi Calm Calm - N/A   Clear
7:35 AM 30.4 °F - 26.6 °F 86% 30.47 in 10.0 mi Calm Calm - N/A   Clear
7:55 AM 31.1 °F 27.7 °F 27.1 °F 85% 30.47 in 10.0 mi WSW 3.5 mph - N/A   Clear
8:15 AM 32.0 °F 28.7 °F 28.0 °F 85% 30.48 in 10.0 mi WSW 3.5 mph - N/A   Clear
8:35 AM 34.2 °F 30.0 °F 29.3 °F 82% 30.48 in 10.0 mi WSW 4.6 mph - N/A   Clear
8:55 AM 36.5 °F 31.8 °F 30.6 °F 79% 30.48 in 10.0 mi WSW 5.8 mph - N/A   Clear
9:15 AM 38.3 °F 33.2 °F 30.6 °F 74% 30.49 in 10.0 mi West 6.9 mph - N/A   Clear
9:35 AM 39.7 °F 34.9 °F 30.6 °F 70% 30.49 in 10.0 mi West 6.9 mph - N/A   Clear
9:55 AM 41.5 °F 37.8 °F 31.3 °F 67% 30.49 in 10.0 mi WSW 5.8 mph - N/A   Clear
10:15 AM 43.3 °F 39.9 °F 30.9 °F 62% 30.49 in 10.0 mi West 5.8 mph - N/A   Clear
10:35 AM 45.0 °F 42.6 °F 31.3 °F 59% 30.48 in 10.0 mi West 4.6 mph - N/A   Clear
10:55 AM 46.6 °F - 31.1 °F 55% 30.48 in 10.0 mi WSW 5.8 mph - N/A   Clear
11:15 AM 47.7 °F - 29.1 °F 49% 30.48 in 10.0 mi West 6.9 mph - N/A   Clear
11:35 AM 49.1 °F - 28.9 °F 46% 30.47 in 10.0 mi West 6.9 mph - N/A   Clear
11:55 AM 50.2 °F - 28.9 °F 44% 30.46 in 10.0 mi WNW 5.8 mph - N/A   Clear
12:15 PM 50.5 °F - 27.5 °F 41% 30.45 in 10.0 mi SW 6.9 mph - N/A   Clear
12:35 PM 51.4 °F - 28.0 °F 40% 30.44 in 10.0 mi SSW 5.8 mph - N/A   Clear
12:55 PM 52.2 °F - 27.7 °F 39% 30.43 in 10.0 mi WSW 8.1 mph - N/A   Clear
1:15 PM 52.0 °F - 27.1 °F 38% 30.41 in 10.0 mi WSW 4.6 mph - N/A   Clear
1:35 PM 52.3 °F - 26.1 °F 36% 30.40 in 10.0 mi WSW 8.1 mph 16.1 mph N/A   Clear
1:55 PM 53.1 °F - 25.5 °F 34% 30.39 in 10.0 mi SW 5.8 mph - N/A   Clear
2:15 PM 53.6 °F - 26.1 °F 35% 30.38 in 10.0 mi South 8.1 mph 16.1 mph N/A   Clear
2:35 PM 54.0 °F - 26.6 °F 35% 30.37 in 10.0 mi SSW 10.4 mph - N/A   Clear
2:55 PM 54.5 °F - 26.6 °F 34% 30.36 in 10.0 mi SW 9.2 mph - N/A   Clear
3:15 PM 54.1 °F - 25.5 °F 33% 30.35 in 10.0 mi SW 10.4 mph - N/A   Clear
3:35 PM 54.1 °F - 24.8 °F 32% 30.34 in 10.0 mi SSW 9.2 mph 17.3 mph N/A   Clear
3:55 PM 54.5 °F - 24.8 °F 32% 30.33 in 10.0 mi SSW 15.0 mph - N/A   Clear
4:15 PM 54.1 °F - 24.4 °F 32% 30.32 in 10.0 mi SSW 11.5 mph 18.4 mph N/A   Clear
4:35 PM 54.0 °F - 24.4 °F 32% 30.31 in 10.0 mi SW 13.8 mph 17.3 mph N/A   Clear
4:55 PM 53.6 °F - 24.4 °F 32% 30.30 in 10.0 mi SW 10.4 mph 16.1 mph N/A   Clear
5:15 PM 52.7 °F - 23.2 °F 32% 30.29 in 10.0 mi SW 9.2 mph 18.4 mph N/A   Clear
5:35 PM 52.0 °F - 23.5 °F 33% 30.29 in 10.0 mi SSW 5.8 mph - N/A   Clear
5:55 PM 50.2 °F - 24.1 °F 36% 30.28 in 10.0 mi SSW 5.8 mph - N/A   Clear
6:15 PM 48.4 °F - 24.6 °F 39% 30.28 in 10.0 mi South 5.8 mph - N/A   Clear
6:35 PM 46.9 °F - 24.8 °F 42% 30.27 in 10.0 mi South 5.8 mph - N/A   Clear
6:55 PM 45.5 °F 43.2 °F 25.5 °F 46% 30.27 in 10.0 mi South 4.6 mph - N/A   Clear
7:15 PM 42.4 °F 38.8 °F 25.7 °F 52% 30.26 in 10.0 mi South 5.8 mph - N/A   Clear
7:35 PM 41.4 °F 38.4 °F 26.1 °F 55% 30.26 in 10.0 mi South 4.6 mph - N/A   Clear
7:55 PM 41.0 °F 39.0 °F 25.9 °F 55% 30.25 in 10.0 mi South 3.5 mph - N/A   Clear
8:15 PM 40.8 °F 37.8 °F 25.7 °F 55% 30.25 in 10.0 mi South 4.6 mph - N/A   Clear
8:35 PM 39.7 °F 36.5 °F 26.2 °F 59% 30.24 in 10.0 mi South 4.6 mph - N/A   Clear
8:55 PM 39.0 °F 35.7 °F 26.4 °F 61% 30.24 in 10.0 mi South 4.6 mph - N/A   Clear
9:15 PM 39.0 °F 34.8 °F 26.6 °F 61% 30.23 in 10.0 mi South 5.8 mph - N/A   Clear
9:35 PM 40.5 °F 35.8 °F 27.0 °F 59% 30.21 in 10.0 mi South 6.9 mph - N/A   Clear
9:55 PM 41.4 °F 36.2 °F 26.6 °F 56% 30.21 in 10.0 mi South 8.1 mph - N/A   Clear
10:15 PM 41.9 °F 36.9 °F 27.0 °F 55% 30.21 in 10.0 mi South 8.1 mph - N/A   Clear
10:35 PM 42.1 °F 37.7 °F 26.6 °F 54% 30.20 in 10.0 mi South 6.9 mph - N/A   Clear
10:55 PM 41.5 °F 37.8 °F 27.0 °F 56% 30.20 in 10.0 mi South 5.8 mph - N/A   Clear
11:15 PM 40.5 °F 36.5 °F 26.6 °F 58% 30.19 in 10.0 mi South 5.8 mph - N/A   Clear
11:35 PM 39.2 °F 35.9 °F 26.6 °F 61% 30.19 in 10.0 mi South 4.6 mph - N/A   Clear
11:55 PM 37.6 °F 34.0 °F 27.0 °F 66% 30.18 in 10.0 mi South 4.6 mph - N/A   Clear